Hourly Data Report for September 22, 2021

QUALICUM BEACH AIRPORT
BRITISH COLUMBIA
Current Station Operator: ECCC - MSC

49°20'14.000" N
124°23'38.000" W
58.20 m
1026562
71766
VOQ

Download Data

Hourly Data (September 2021)
Hourly Data Report for September 22, 2021
TIME
LST
Temp Definition
°C
Dew Point Definition
°C
Rel Hum Definition
%
Precip. Amount Definition
mm

Wind Dir Definition
10's deg

Wind Spd Definition
km/h
Visibility Definition
km
Stn Press Definition
kPa
Hmdx Definition


Wind Chill Definition


Weather Definition


00:00 12.1 10.5 90 0.0 18 2   100.98     LegendNANA
01:00 12.1 10.4 89 0.0 28 4   101.00     LegendNANA
02:00 12.3 10.1 87 0.0 25 4   101.07     LegendNANA
03:00 12.8 10.5 86 0.0 27 5   101.11     LegendNANA
04:00 11.9 10.7 92 0.3 23 1   101.15     LegendNANA
05:00 12.1 11.1 94 0.1 24 4   101.19     LegendNANA
06:00 12.0 11.1 94 0.0 24 3   101.20     LegendNANA
07:00 12.3 11.4 95 0.0 25 2   101.21     LegendNANA
08:00 13.9 11.7 87 0.0 30 6   101.29     LegendNANA
09:00 14.2 11.9 86 0.0 31 12   101.38     LegendNANA
10:00 16.0 12.3 79 0.0 30 13   101.42     LegendNANA
11:00 15.8 11.5 76 0.0 33 17   101.49     LegendNANA
12:00 17.1 11.4 69 0.0 34 10   101.48     LegendNANA
13:00 16.8 11.4 71 0.0 35 11   101.54     LegendNANA
14:00 17.1 10.7 66 0.0 34 10   101.56     LegendNANA
15:00 17.6 9.9 60 0.0 32 18   101.62     LegendNANA
16:00 17.6 9.3 58 0.0 31 16   101.60     LegendNANA
17:00 16.6 9.4 62 0.0 29 8   101.61     LegendNANA
18:00 14.0 10.3 78 0.0 25 3   101.66     LegendNANA
19:00 12.8 10.0 83 0.0 25 3   101.72     LegendNANA
20:00 13.7 10.7 82 0.0 28 4   101.77     LegendNANA
21:00 13.3 10.9 85 0.0 26 5   101.79     LegendNANA
22:00 14.3 9.8 74 0.0 29 7   101.79     LegendNANA
23:00 14.2 9.3 72 0.0 32 6   101.81     LegendNANA

Notes on Data Quality.

Legend

  • E = Estimated
  • M = Missing
  • NA = Not Available*
  • [empty] = Indicates an unobserved value
Date modified: